User: anonymous   Login
Location: Unspecified
(0.0000°N, 0.0000°E)
Time: 14:50:12
(UTC+00:00)
Language:

Tansei-1 - Orbit

View from above orbital plane
View from above orbital plane
View from above satellite
View from above satellite

Ground track
Ground track

The orbit data is extracted from the following two-line orbital elements,

1  4952U 71011A   17206.00718883 +.00000073 +00000-0 +10476-4 0  9993
2  4952 029.6682 031.2344 0079637 109.1790 030.1232 13.58469162306387
Epoch (UTC): 25 July 2017 00:10:21
Eccentricity: 0.0079637
inclination: 29.6682°
perigee height: 982 km
apogee height: 1100 km
right ascension of ascending node: 31.2344°
argument of perigee: 109.1790°
revolutions per day: 13.58469162
mean anomaly at epoch: 30.1232°
orbit number at epoch: 30638

The dashed part of the orbit path shows where the satellite is in the earth's shadow,  

DLR